Simultaneous Nadir Overpasses (SNOs) Predictions

Prediction of SNOs between FY3D and LANDSAT-8 Satellite Orbit:

Table of predicted SNOs for the next 14.0 days since TLE Epoch: 8/8/2020
Index Date (FY3D) Time (FY3D) Lat,Lon (FY3D) SZA (FY3D ) Date (LANDSAT-8) Time (LANDSAT-8) Lat,Lon (LANDSAT-8) SZA (LANDSAT-8 ) Distance(km) Time Diff (sec)
1 08/08/2020 17:52:24 70.64, -91.16 54.76 08/08/2020 17:53:18 70.63, -91.10 54.74 2.75 54
2 08/08/2020 18:43:05 -70.51, 76.38 125.38 08/08/2020 18:42:48 -70.52, 76.37 125.36 1.50 17
3 08/08/2020 19:33:35 69.69,-115.06 53.79 08/08/2020 19:32:27 69.76,-117.08 53.92 78.28 68
4 08/11/2020 10:08:47 70.64, 24.76 55.54 08/11/2020 10:09:47 70.66, 24.82 55.55 3.08 60
5 08/11/2020 10:59:29 -70.55,-167.79 124.54 08/11/2020 10:59:17 -70.55,-167.71 124.55 2.98 12
6 08/11/2020 11:50:02 69.90, 0.55 54.79 08/11/2020 11:48:53 69.95, -0.93 54.89 56.68 69
7 08/14/2020 02:25:10 70.64, 140.68 56.35 08/14/2020 02:26:17 70.62, 140.66 56.33 1.41 67
8 08/14/2020 03:15:52 -70.55, -51.87 123.74 08/14/2020 03:15:47 -70.52, -51.87 123.77 3.26 5
9 08/14/2020 04:06:29 70.11, 116.14 55.82 08/14/2020 04:05:18 70.19, 115.30 55.93 33.40 71
10 08/16/2020 18:41:33 70.68,-103.49 57.23 08/16/2020 18:42:45 70.64,-103.43 57.18 4.79 72
11 08/16/2020 19:32:14 -70.55, 64.05 122.90 08/16/2020 19:32:15 -70.54, 64.05 122.91 0.27 1
12 08/16/2020 20:22:56 70.36,-128.35 56.92 08/16/2020 20:21:43 70.37,-128.55 56.95 7.81 73
13 08/19/2020 10:58:00 70.89, 12.09 58.31 08/19/2020 10:59:12 70.77, 12.64 58.17 24.14 72
14 08/19/2020 11:48:37 -70.54, 179.97 122.04 08/19/2020 11:48:44 -70.56, 179.96 122.02 2.39 7
15 08/19/2020 12:39:21 70.47, -12.59 57.89 08/19/2020 12:38:11 70.45, -12.57 57.88 2.37 70
16 08/22/2020 03:14:27 71.09, 127.65 59.41 08/22/2020 03:15:37 71.00, 128.88 59.28 45.51 70
